Regional Weather Roundup
Issued by NWS

Home | Current Version | Previous Version | Text Only | Print | Product List | Glossary On
Versions: 1 2 3 4 5 6 7 8 9 10 11 12 13 14 15 16 17 18 19 20 21 22 23 24 25 26 27 28 29 30 31 32 33 34 35 36 37 38 39 40 41 42 43 44 45 46 47 48 49 50
000
ASUS43 KDTX 011801
RWRMI
MICHIGAN HOURLY REGIONAL WEATHER ROUNDUP
NATIONAL WEATHER SERVICE DETROIT/PONTIAC MI
200 PM EDT SAT AUG 01 2015

NOTE: "FAIR" INDICATES FEW OR NO CLOUDS BELOW 12,000 FEET WITH NO
SIGNIFICANT WEATHER AND/OR OBSTRUCTION TO VISIBILITY.

MIZ047>049-052>055-059>063-066>070-074>076-081>083-011900-
SOUTHEAST LOWER MICHIGAN

CITY           SKY/WX    TMP DP  RH WIND       PRES   REMARKS
ADRIAN         PTSUNNY   80  54  40 W15G21    29.95F
6HR MIN TEMP:  64; 6HR MAX TEMP:  80;

ALMA           MOSUNNY   80  49  33 W9G20     29.90F
ANN ARBOR      PTSUNNY   79  53  40 W14       29.93S
BAD AXE        MOSUNNY   76  57  50 W13G20    29.87F
6HR MIN TEMP:  61; 6HR MAX TEMP:  77;

CARO           PTSUNNY   80  56  43 W16       29.86F
DETROIT CITY   SUNNY     80  50  34 NW13G20   29.90F
6HR MIN TEMP:  67; 6HR MAX TEMP:  82;

DETROIT        PTSUNNY   84  53  34 W13G24    29.91F
6HR MIN TEMP:  66; 6HR MAX TEMP:  84;

FLINT          PTSUNNY   78  51  38 W14       29.90F
6HR MIN TEMP:  64; 6HR MAX TEMP:  84;

GROSSE ILE     PTSUNNY   79  52  38 W7        29.91S
HILLSDALE      MOSUNNY   81  49  32 NW16G23   29.97S
6HR MIN TEMP:  65; 6HR MAX TEMP:  82;

HOWELL         PTSUNNY   82  48  30 NW10G16   29.92F
6HR MIN TEMP:  62; 6HR MAX TEMP:  82;


CITY           SKY/WX    TMP DP  RH WIND       PRES   REMARKS
JACKSON        MOSUNNY   79  53  40 W17G25    29.94F
6HR MIN TEMP:  62; 6HR MAX TEMP:  80;

LAMBERTVILLE   PTSUNNY   82  55  39 W9        29.94F
6HR MIN TEMP:  65; 6HR MAX TEMP:  82;

LANSING        MOSUNNY   82  50  32 W16G23    29.92F
6HR MIN TEMP:  64; 6HR MAX TEMP:  82;

LAPEER         PTSUNNY   78  53  40 W9        29.88F
MASON          MOSUNNY   79  53  39 W12G18    29.93F
MONROE         CLOUDY    78  54  43 W13G20    29.92S
6HR MIN TEMP:  64; 6HR MAX TEMP:  82;

MT. CLEMENS    MOSUNNY   82  55  39 W9        29.87F
6HR MIN TEMP:  67; 6HR MAX TEMP:  82;

PONTIAC        MOSUNNY   81  51  35 W20G31    29.91S
6HR MIN TEMP:  65; 6HR MAX TEMP:  81;

PORT HOPE        N/A     76  59  55 VRB5      29.85F
6HR MIN TEMP:  63; 6HR MAX TEMP:  77;

PORT HURON     MOSUNNY   79  55  44 W5        29.88F
TRI CITIES     MOSUNNY   82  54  37 W13       29.88F
6HR MIN TEMP:  63; 6HR MAX TEMP:  82;

MIDLAND        FAIR      81  51  35 W7G17     29.86F
6HR MIN TEMP:  61; 6HR MAX TEMP:  82;

TROY           PTSUNNY   80  51  35 W12G18    29.92F
SAGINAW HB     CLOUDY    75  54  46 W9G21     29.87F
$$
MIZ043>046-050>051-056>058-064>065-071>073-077>080-011900-
SOUTHWEST LOWER MICHIGAN

CITY           SKY/WX    TMP DP  RH WIND       PRES   REMARKS
BATTLE CREEK   MOSUNNY   83  53  35 W17G24    29.96F
6HR MIN TEMP:  68; 6HR MAX TEMP:  83;

BENTON HARBOR  MOSUNNY   80  59  48 W12       29.97F
6HR MIN TEMP:  70; 6HR MAX TEMP:  80;

BIG RAPIDS     MOSUNNY   77  45  31 NW3       29.90S
6HR MIN TEMP:  62; 6HR MAX TEMP:  80;

COLDWATER      PTSUNNY   80  49  33 W15G23    29.97S
6HR MIN TEMP:  62; 6HR MAX TEMP:  80;

FREMONT        FAIR      80  45  29 W14G20    29.92S
HOLLAND        SUNNY     79  59  50 W9        29.96F
6HR MIN TEMP:  68; 6HR MAX TEMP:  79;

GRAND RAPIDS   MOSUNNY   82  48  30 W20G31    29.93F
6HR MIN TEMP:  66; 6HR MAX TEMP:  83;

IONIA          FAIR      82  47  28 NW17G28   29.91F
6HR MIN TEMP:  67; 6HR MAX TEMP:  82;

KALAMAZOO      MOSUNNY   82  51  34 W13G22    29.96F
6HR MIN TEMP:  66; 6HR MAX TEMP:  83;

LUDINGTON      SUNNY     76  59  56 W8        29.92F
6HR MIN TEMP:  71; 6HR MAX TEMP:  76;

MARSHALL       MOSUNNY   81  52  36 W14       29.95S
MOUNT PLEASANT MOSUNNY   84  49  29 W13       29.87F
6HR MIN TEMP:  65; 6HR MAX TEMP:  85;

MUSKEGON       MOSUNNY   77  57  50 W12       29.94F
6HR MIN TEMP:  71; 6HR MAX TEMP:  79;

SOUTH HAVEN    MOSUNNY   76  60  57 W12       29.98R
$$
MIZ016>042-011900-
NORTHERN LOWER MICHIGAN

CITY           SKY/WX    TMP DP  RH WIND       PRES   REMARKS
ALPENA         PTSUNNY   78  52  40 NW8       29.83F
6HR MIN TEMP:  61; 6HR MAX TEMP:  81;

BEAVER ISLAND  SUNNY     73  58  58 SW10      29.86S
6HR MIN TEMP:  63; 6HR MAX TEMP:  73;

BELLAIRE       MOSUNNY   77  55  46 W7        29.87S
6HR MIN TEMP:  63; 6HR MAX TEMP:  77;

CADILLAC       PTSUNNY   77  51  40 W10G18    29.90S
CHARLEVOIX     SUNNY     74  59  61 W12       29.90S
6HR MIN TEMP:  67; 6HR MAX TEMP:  74;

FRANKFORT      SUNNY     73  62  66 W9        29.90S
GAYLORD        MOSUNNY   75  50  41 W10G20    29.87F
6HR MIN TEMP:  58; 6HR MAX TEMP:  77;

GRAYLING       PTSUNNY   79  50  36 W14G24    29.88S
HARBOR SPRINGS SUNNY     73  60  65 SW8       29.86S
HOUGHTON LAKE  PTSUNNY   74  55  51 W7        29.89F
6HR MIN TEMP:  64; 6HR MAX TEMP:  77; 6HR PCP: TRACE;

MANISTEE       SUNNY     72  55  56 SW10      29.92S
OSCODA         PTSUNNY   77  54  43 N9        29.84S
PELLSTON       MOSUNNY   77  56  48 SW14G21   29.85S
6HR MIN TEMP:  60; 6HR MAX TEMP:  78;

ROGERS CITY    PTSUNNY   72  60  67 N7        29.84F
TRAVERSE CITY  PTSUNNY   79  52  38 NW13G21   29.86S
6HR MIN TEMP:  64; 6HR MAX TEMP:  82;

$$
MIZ007>008-015-011900-
EASTERN UPPER MICHIGAN

CITY           SKY/WX    TMP DP  RH WIND       PRES   REMARKS
KINROSS        PTSUNNY   73  57  56 NW8       29.81F
6HR MIN TEMP:  55; 6HR MAX TEMP:  75;

MACKINAC ISLAN   N/A     70  59  68 SW15      29.84F
NEWBERRY       PTSUNNY   77  52  41 W14G23    29.83S HAZE
6HR MIN TEMP:  58; 6HR MAX TEMP:  78;

S. S. MARIE    SUNNY     72  56  57 NW10      29.81F
6HR MIN TEMP:  58; 6HR MAX TEMP:  73;

MUNISING         N/A     73  57  57 N8        29.85F
6HR MIN TEMP:  61; 6HR MAX TEMP:  75;

$$
MIZ004>006-011>014-085-011900-
CENTRAL UPPER MICHIGAN

CITY           SKY/WX    TMP DP  RH WIND       PRES   REMARKS
MANISTIQUE     PTSUNNY   72  57  60 S8G16     29.84F
ESCANABA       PTSUNNY   79  50  36 NW7G17    29.84F
6HR MIN TEMP:  61; 6HR MAX TEMP:  79;

MENOMINEE      MOSUNNY   77  52  41 W6G17     29.87F
6HR MIN TEMP:  61; 6HR MAX TEMP:  77;

SAWYER-GWINN   MOSUNNY   75  48  38 W18G29    29.86S
$$
MIZ001>003-009>011-084-011900-
WESTERN UPPER MICHIGAN

CITY           SKY/WX    TMP DP  RH WIND       PRES   REMARKS
IRON MOUNTAIN  PTSUNNY   77  51  40 NW15      29.88F
6HR MIN TEMP:  59; 6HR MAX TEMP:  78;

HOUGHTON       SUNNY     73  54  51 W15       29.84F
6HR MIN TEMP:  60; 6HR MAX TEMP:  73;

COPPER HARBOR    N/A     70  60  70 N18       29.81F
6HR MIN TEMP:  66; 6HR MAX TEMP:  72;

IRONWOOD       SUNNY     73  54  49 NW12G20     N/A
6HR MIN TEMP:  55; 6HR MAX TEMP:  73;

$$

ABBREVIATIONS USED IN REMARKS
   TC - TEMPERATURE IN CELSIUS
  WCI - WIND CHILL INDEX
   HX - HEAT INDEX
  VSB - VISIBILITY



USA.gov is the U.S. government's official web portal to all federal, state and local government web resources and services.